Flag for Austria Weather past 2 weeks in Krems, Lower Austria, Austria

Now
82 °F

Passing clouds.


Feels Like: 83 °F
Forecast: 58 / 90 °F
Wind: 9 mph from Southeast

Location: Tulln Airport

Current Time: Aug 28, 2015 at 8:18:47 PM

Latest Report: Aug 28, 2015 at 7:50 PM


Visibility: 19 mi

Pressure: 30.07 "Hg

Humidity: 48%

Dew point: 61 °F

Location of KremsLocation

Historic Weather in Krems — Graph

°F

Krems temperature yesterday

Maximum temperature yesterday: 86 °F (at 3:50 PM)
Minimum temperature yesterday: 52 °F (at 5:50 AM)
Average temperature yesterday: 73 °F

Past Weeks' High & Low Weather Summary

 TemperatureHumidityPressure
High97 °F (Aug 14, 3:50 PM)100% (Aug 17, 6:50 AM)30.24 "Hg (Aug 17, 6:50 AM)
Low48 °F (Aug 26, 6:50 AM)26% (Aug 14, 4:50 PM)29.71 "Hg (Aug 15, 5:50 PM)
Average71 °F66%29.98 "Hg
* Reported Aug 13 6:50 PM — Aug 28 6:50 PM, Krems, Weather by CustomWeather, © 2015

Note: Actual official high and low records may vary slightly from our data, if they occured in-between our weather recording intervals... More about our weather records

Advertising

Krems weather history for previous 24 hours

 ConditionsComfort  
Time TempWeatherWind HumidityBarometerVisibility
6:50 PM
Fri, Aug 28
86 °FPartly sunny.8 mph46%30.07 "Hg19 mi
5:50 PM86 °FPartly sunny.8 mph49%30.07 "Hg19 mi
4:50 PM90 °FPartly sunny.6 mph41%30.07 "Hg19 mi
3:50 PM88 °FPartly sunny.3 mph43%30.07 "Hg19 mi
2:50 PM88 °FPartly sunny.6 mph49%30.07 "Hg19 mi
1:50 PM84 °FPartly sunny.5 mph55%30.07 "Hg12 mi
12:50 PM81 °FPartly sunny.3 mph62%30.09 "Hg12 mi
12:20 PM79 °FPartly sunny.3 mph65%30.09 "Hg7 mi
11:50 AM77 °FPartly sunny.3 mph69%30.09 "Hg7 mi
10:50 AM73 °FPartly sunny.3 mph74%30.09 "Hg4 mi
9:50 AM66 °FFog.3 mph94%30.07 "Hg1 mi
8:50 AM64 °FFog.5 mph100%30.04 "Hg0 mi
8:20 AM64 °FFog.5 mph94%30.04 "Hg0 mi
7:50 AM63 °FFog.5 mph100%30.01 "Hg0 mi
6:50 AM63 °FFog.3 mph94%29.98 "Hg0 mi
5:50 AM61 °FFog.3 mph94%29.98 "Hg2 mi
10:50 PM
Thu, Aug 27
75 °FPassing clouds.14 mph69%29.95 "Hg7 mi
9:50 PM75 °FPassing clouds.6 mph69%29.95 "Hg7 mi
8:50 PM77 °FPassing clouds.10 mph65%29.95 "Hg9 mi
Weather by CustomWeather, © 2015

See weather overviewHow to use our weather pages